W1JAB Weather Reports


time (UTC)temp
C
wind
direction
speed
KPH
gust
KPH
rain 1hr
cm
rain 24hr
cm
rain mn
cm
humidity
%
barometer
mb
20260505021838 17 176 8.0 22.5 0.00 0.00 0.00 50 1010.0
20260505021334 17 210 8.0 16.1 0.00 0.00 0.00 50 1010.0
20260505020852 17 172 8.0 20.9 0.00 0.00 0.00 50 1009.8
20260505020347 17 161 9.7 17.7 0.00 0.00 0.00 50 1009.9
20260505015842 17 176 9.7 19.3 0.00 0.00 0.00 49 1009.8
20260505015339 17 166 9.7 24.1 0.00 0.00 0.00 49 1009.7
20260505014816 17 139 11.3 22.5 0.00 0.00 0.00 49 1009.7
20260505014335 17 197 12.9 19.3 0.00 0.00 0.00 48 1009.6
20260505013832 17 187 12.9 25.7 0.00 0.00 0.00 47 1009.5
20260505013417 17 232 9.7 25.7 0.00 0.00 0.00 48 1009.6
20260505012832 17 174 8.0 25.7 0.00 0.00 0.00 47 1009.4
20260505012328 17 192 14.5 25.7 0.00 0.00 0.00 47 1009.3
20260505011826 18 191 12.9 25.7 0.00 0.00 0.00 46 1009.1
20260505011342 18 193 12.9 25.7 0.00 0.00 0.00 46 1009.0
20260505010817 18 128 11.3 25.7 0.00 0.00 0.00 46 1008.8
20260505010328 18 178 8.0 19.3 0.00 0.00 0.00 46 1008.7
20260505005841 18 223 8.0 19.3 0.00 0.00 0.00 45 1008.7
20260505005317 18 170 9.7 22.5 0.00 0.00 0.00 44 1008.6
20260505004832 18 155 9.7 22.5 0.00 0.00 0.00 43 1008.4
20260505004331 18 191 8.0 19.3 0.00 0.00 0.00 43 1008.3
20260505003915 18 178 6.4 19.3 0.00 0.00 0.00 44 1008.1
20260505003349 18 186 3.2 4.8 0.00 0.00 0.00 41 1007.8
20260505002913 18 186 3.2 4.8 0.00 0.00 0.00 40 1007.6
20260505002330 18 186 1.6 3.2 0.00 0.00 0.00 40 1007.5
20260505001849 19 186 0.0 4.8 0.00 0.00 0.00 40 1007.5
20260505001326 19 186 1.6 4.8 0.00 0.00 0.00 39 1007.3
20260505000910 19 169 3.2 4.8 0.00 0.00 0.00 39 1007.4
20260505000343 19 167 1.6 4.8 0.00 0.00 0.00 38 1007.3
20260504235840 20 166 1.6 11.3 0.00 0.00 0.00 38 1007.3
20260504235400 20 166 3.2 11.3 0.00 0.00 0.00 37 1007.1
20260504234834 20 205 3.2 11.3 0.00 0.00 0.00 37 1007.1
20260504234352 20 221 4.8 11.3 0.00 0.00 0.00 35 1007.1
20260504233847 21 242 1.6 8.0 0.00 0.00 0.00 35 1007.0
20260504233344 21 243 3.2 8.0 0.00 0.00 0.00 35 1006.9
20260504232840 21 269 1.6 8.0 0.00 0.00 0.00 34 1006.8
20260504232404 21 282 3.2 11.3 0.00 0.00 0.00 34 1006.8
20260504231821 21 287 3.2 16.1 0.00 0.00 0.00 33 1006.8
20260504231339 21 307 4.8 16.1 0.00 0.00 0.00 33 1006.7
20260504230816 21 280 6.4 12.9 0.00 0.00 0.00 33 1006.5
20260504230331 21 277 4.8 16.1 0.00 0.00 0.00 33 1006.6
20260504225828 21 261 8.0 16.1 0.00 0.00 0.00 34 1006.4
20260504225325 21 228 3.2 14.5 0.00 0.00 0.00 34 1006.4
20260504224841 21 276 4.8 9.7 0.00 0.00 0.00 33 1006.4
20260504224357 21 244 4.8 12.9 0.00 0.00 0.00 33 1006.3
20260504223830 22 249 6.4 14.5 0.00 0.00 0.00 32 1006.1
20260504223346 22 280 8.0 17.7 0.00 0.00 0.00 32 1006.2
20260504222822 22 279 9.7 17.7 0.00 0.00 0.00 32 1006.2
20260504222340 22 320 4.8 12.9 0.00 0.00 0.00 34 1006.1
20260504221903 22 198 4.8 12.9 0.00 0.00 0.00 33 1006.3
20260504221339 22 271 4.8 12.9 0.00 0.00 0.00 32 1006.4
20260504220834 22 283 6.4 20.9 0.00 0.00 0.00 32 1006.3
20260504220329 22 265 8.0 20.9 0.00 0.00 0.00 32 1006.4
20260504215847 22 275 11.3 16.1 0.00 0.00 0.00 32 1006.3
20260504215323 22 274 8.0 19.3 0.00 0.00 0.00 32 1006.1
20260504214840 22 288 9.7 20.9 0.00 0.00 0.00 31 1006.1
20260504214359 22 243 8.0 20.9 0.00 0.00 0.00 32 1006.2
20260504213923 22 309 12.9 20.9 0.00 0.00 0.00 31 1006.3
20260504213354 22 285 9.7 22.5 0.00 0.00 0.00 31 1006.4
20260504212849 22 292 12.9 19.3 0.00 0.00 0.00 30 1006.3
20260504212347 22 314 8.0 17.7 0.00 0.00 0.00 30 1006.2
20260504211824 22 282 8.0 14.5 0.00 0.00 0.00 31 1006.2
20260504211320 22 278 4.8 20.9 0.00 0.00 0.00 31 1006.2
20260504210838 22 322 12.9 20.9 0.00 0.00 0.00 31 1006.1
20260504210352 22 269 3.2 16.1 0.00 0.00 0.00 32 1006.2
20260504205827 22 182 8.0 25.7 0.00 0.00 0.00 31 1006.2
20260504205413 22 261 12.9 25.7 0.00 0.00 0.00 31 1006.2
20260504204828 22 276 6.4 25.7 0.00 0.00 0.00 31 1006.1
20260504204325 22 260 9.7 25.7 0.00 0.00 0.00 30 1006.2
20260504203821 22 257 9.7 24.1 0.00 0.00 0.00 30 1006.2
20260504203405 22 326 11.3 19.3 0.00 0.00 0.00 30 1006.2
20260504202908 22 254 8.0 19.3 0.00 0.00 0.00 31 1006.2
20260504202406 22 261 9.7 17.7 0.00 0.00 0.00 31 1006.1
20260504201908 22 283 6.4 19.3 0.00 0.00 0.00 32 1006.2
20260504201411 22 127 8.0 17.7 0.00 0.00 0.00 30 1006.1
20260504200828 22 209 9.7 24.1 0.00 0.00 0.00 30 1006.1
20260504200341 22 272 12.9 29.0 0.00 0.00 0.00 30 1006.3
20260504195817 22 285 9.7 29.0 0.00 0.00 0.00 30 1006.2
20260504195334 22 273 11.3 29.0 0.00 0.00 0.00 29 1006.2
20260504194831 22 261 9.7 24.1 0.00 0.00 0.00 31 1006.3
20260504194348 22 130 12.9 25.7 0.00 0.00 0.00 32 1006.2
20260504193911 22 323 8.0 25.7 0.00 0.00 0.00 30 1006.3
20260504193413 22 127 8.0 25.7 0.00 0.00 0.00 30 1006.5
20260504192849 22 328 9.7 20.9 0.00 0.00 0.00 31 1006.3
20260504192325 22 233 12.9 20.9 0.00 0.00 0.00 30 1006.3
20260504191837 22 269 8.0 17.7 0.00 0.00 0.00 29 1006.4
20260504191333 23 249 6.4 22.5 0.00 0.00 0.00 30 1006.3
20260504190831 22 258 11.3 29.0 0.00 0.00 0.00 32 1006.4
20260504190325 22 255 17.7 29.0 0.00 0.00 0.00 29 1006.4
20260504185910 22 313 12.9 27.4 0.00 0.00 0.00 31 1006.4
20260504185345 22 253 17.7 25.7 0.00 0.00 0.00 30 1006.5
20260504184823 21 266 16.1 25.7 0.00 0.00 0.00 30 1006.7
20260504184318 21 251 14.5 27.4 0.00 0.00 0.00 31 1006.6
20260504183835 21 267 8.0 24.1 0.00 0.00 0.00 31 1006.6
20260504183353 22 257 11.3 27.4 0.00 0.00 0.00 30 1006.7
20260504182829 22 259 11.3 32.2 0.00 0.00 0.00 31 1006.6
20260504182346 21 238 9.7 32.2 0.00 0.00 0.00 31 1006.7
20260504181842 21 326 8.0 22.5 0.00 0.00 0.00 32 1006.8
20260504181359 21 274 14.5 25.7 0.00 0.00 0.00 31 1006.7
20260504180835 21 277 16.1 25.7 0.00 0.00 0.00 30 1006.8
20260504180418 21 258 12.9 22.5 0.00 0.00 0.00 30 1006.8
20260504175918 21 304 11.3 24.1 0.00 0.00 0.00 32 1006.6
20260504175332 21 324 12.9 24.1 0.00 0.00 0.00 33 1006.9
20260504174829 21 299 8.0 27.4 0.00 0.00 0.00 31 1007.0
20260504174347 21 294 9.7 37.0 0.00 0.00 0.00 35 1006.9
20260504173824 21 288 16.1 37.0 0.00 0.00 0.00 34 1006.9
20260504173341 21 195 12.9 24.1 0.00 0.00 0.00 31 1006.8
20260504172859 21 205 11.3 32.2 0.00 0.00 0.00 35 1007.1
20260504172355 20 226 16.1 32.2 0.00 0.00 0.00 33 1006.8
20260504171831 20 235 19.3 32.2 0.00 0.00 0.00 33 1007.3
20260504171329 20 242 11.3 32.2 0.00 0.00 0.00 33 1007.3
20260504170847 20 310 16.1 32.2 0.00 0.00 0.00 34 1007.4
20260504170320 20 253 17.7 33.8 0.00 0.00 0.00 33 1007.6
20260504160413 20 201 14.5 27.4 0.00 0.00 0.00 36 1007.6
20260504150843 18 184 11.3 29.0 0.00 0.00 0.00 40 1008.2
20260504150401 18 321 8.0 25.7 0.00 0.00 0.00 39 1008.2
20260504141334 17 241 9.7 17.7 0.00 0.00 0.00 43 1009.0
20260504140851 16 197 8.0 17.7 0.00 0.00 0.00 45 1009.0
20260504140346 16 343 8.0 22.5 0.00 0.00 0.00 43 1009.0
20260504130335 14 292 4.8 19.3 0.00 0.00 0.00 51 1009.6
20260504110416 8 211 1.6 6.4 0.00 0.00 0.00 62 1010.6
20260504100320 7 183 3.2 8.0 0.00 0.00 0.00 64 1010.6
20260504081820 6 247 0.0 0.0 0.00 0.00 0.00 63 1010.5
20260504081336 6 247 0.0 0.0 0.00 0.00 0.00 63 1010.6
20260504080854 6 247 0.0 0.0 0.00 0.00 0.00 63 1010.4
20260504080347 6 247 0.0 0.0 0.00 0.00 0.00 64 1010.6
20260504050352 3 295 0.0 3.2 0.00 0.03 0.00 73 1010.4
20260504045844 3 295 0.0 3.2 0.00 0.03 0.00 72 1010.4
20260504045340 3 295 0.0 0.0 0.00 0.08 0.00 72 1010.3
20260504044857 3 295 0.0 0.0 0.00 0.08 0.00 73 1010.2
20260504044353 3 295 0.0 0.0 0.00 0.08 0.00 75 1010.2
20260504043916 3 295 0.0 0.0 0.00 0.08 0.00 77 1010.3
20260504043348 2 295 0.0 0.0 0.00 0.08 0.00 78 1010.3
20260504042906 2 295 0.0 0.0 0.00 0.08 0.00 78 1010.2
20260504042340 2 295 0.0 0.0 0.00 0.08 0.00 78 1010.3
20260504041837 2 295 0.0 0.0 0.00 0.08 0.00 78 1010.3
20260504041353 2 295 0.0 0.0 0.00 0.08 0.00 78 1010.2
20260504040849 2 295 0.0 0.0 0.00 0.08 0.00 79 1010.2
20260504040321 2 295 0.0 0.0 0.00 0.08 0.00 80 1010.0
20260504035817 2 295 0.0 0.0 0.00 0.08 0.00 79 1010.1
20260504035357 2 295 0.0 0.0 0.00 0.08 0.08 79 1010.1
20260504034834 2 295 0.0 0.0 0.00 0.08 0.08 79 1010.1
20260504034330 2 295 0.0 0.0 0.00 0.08 0.08 78 1010.1
20260504033828 2 295 0.0 0.0 0.00 0.08 0.08 78 1010.0
20260504033345 2 295 0.0 0.0 0.00 0.08 0.08 77 1010.0
20260504032909 2 295 0.0 0.0 0.00 0.08 0.08 77 1010.1
20260504032324 2 295 0.0 0.0 0.00 0.08 0.08 77 1010.0
20260504031820 2 295 0.0 0.0 0.00 0.08 0.08 76 1010.0
20260504031317 2 295 0.0 0.0 0.00 0.08 0.08 75 1010.2
20260504030834 2 295 0.0 0.0 0.00 0.08 0.08 75 1010.0
20260504030348 3 295 0.0 0.0 0.00 0.08 0.08 74 1010.0
20260504025823 3 295 0.0 0.0 0.00 0.08 0.08 74 1010.0
20260504025342 3 295 0.0 0.0 0.00 0.08 0.08 73 1010.1
20260504024900 3 295 0.0 0.0 0.00 0.08 0.08 73 1010.0
20260504024402 3 295 0.0 0.0 0.00 0.08 0.08 72 1010.0
20260504023858 3 295 0.0 0.0 0.00 0.08 0.08 72 1010.1
20260504023356 3 295 0.0 0.0 0.00 0.08 0.08 71 1010.0
20260504022913 4 295 0.0 0.0 0.00 0.08 0.08 70 1010.0
20260504022327 4 295 0.0 0.0 0.00 0.08 0.08 70 1010.1